Time,TemperatureF,DewpointF,PressureIn,WindDirection,WindDirectionDegrees,WindSpeedMPH,WindSpeedGustMPH,Humidity,HourlyPrecipIn,Conditions,Clouds,dailyrainin,SoftwareType,DateUTC
2013-01-18 00:02:00,29.1,0.9,30.29,West,259,3.0,5.0,29,0.00,,,0.00,meteohub,2013-01-18 07:02:00,
2013-01-18 00:07:00,29.3,1.0,30.29,SW,229,5.0,6.0,29,0.00,,,0.00,meteohub,2013-01-18 07:07:00,
2013-01-18 00:12:00,29.3,1.0,30.29,SW,236,3.0,6.0,29,0.00,,,0.00,meteohub,2013-01-18 07:12:00,
2013-01-18 00:17:00,29.5,1.9,30.30,NE,39,0.0,6.0,30,0.00,,,0.00,meteohub,2013-01-18 07:17:00,
2013-01-18 00:22:00,29.5,2.5,30.29,NE,39,2.0,8.0,31,0.00,,,0.00,meteohub,2013-01-18 07:22:00,
2013-01-18 00:27:00,29.3,1.8,30.29,NE,38,2.0,8.0,30,0.00,,,0.00,meteohub,2013-01-18 07:27:00,
2013-01-18 00:32:00,28.9,1.4,30.29,West,269,14.0,14.0,30,0.00,,,0.00,meteohub,2013-01-18 07:32:00,
2013-01-18 00:37:00,29.3,0.1,30.29,SW,234,5.0,14.0,28,0.00,,,0.00,meteohub,2013-01-18 07:37:00,
2013-01-18 00:42:00,29.7,0.5,30.28,SW,218,3.0,14.0,28,0.00,,,0.00,meteohub,2013-01-18 07:42:00,
2013-01-18 00:47:00,29.8,0.0,30.28,SW,219,3.0,14.0,27,0.00,,,0.00,meteohub,2013-01-18 07:47:00,
2013-01-18 00:52:00,29.8,0.7,30.28,SW,214,3.0,6.0,28,0.00,,,0.00,meteohub,2013-01-18 07:52:00,
2013-01-18 00:57:00,29.7,0.5,30.28,SW,214,3.0,6.0,28,0.00,,,0.00,meteohub,2013-01-18 07:57:00,
2013-01-18 01:02:00,29.5,0.3,30.28,SW,214,2.0,6.0,28,0.00,,,0.00,meteohub,2013-01-18 08:02:00,
2013-01-18 01:07:00,29.5,0.3,30.28,SW,214,3.0,6.0,28,0.00,,,0.00,meteohub,2013-01-18 08:07:00,
2013-01-18 01:12:00,29.3,0.1,30.28,SW,215,1.0,5.0,28,0.00,,,0.00,meteohub,2013-01-18 08:12:00,
2013-01-18 01:17:00,29.1,0.1,30.27,SW,215,4.0,5.0,28,0.00,,,0.00,meteohub,2013-01-18 08:17:00,
2013-01-18 01:22:00,29.1,0.9,30.28,SSW,203,2.0,7.0,29,0.00,,,0.00,meteohub,2013-01-18 08:22:00,
2013-01-18 01:27:00,29.5,-0.4,30.28,West,263,2.0,7.0,27,0.00,,,0.00,meteohub,2013-01-18 08:27:00,
2013-01-18 01:32:00,29.8,0.0,30.28,West,263,0.0,7.0,27,0.00,,,0.00,meteohub,2013-01-18 08:32:00,
2013-01-18 01:37:00,30.4,0.3,30.28,SSW,205,4.0,7.0,27,0.00,,,0.00,meteohub,2013-01-18 08:37:00,
2013-01-18 01:42:00,30.4,1.2,30.28,SSW,207,3.0,7.0,28,0.00,,,0.00,meteohub,2013-01-18 08:42:00,
2013-01-18 01:47:00,30.6,1.4,30.28,SW,214,4.0,7.0,28,0.00,,,0.00,meteohub,2013-01-18 08:47:00,
2013-01-18 01:52:00,30.9,1.6,30.28,SW,214,2.0,6.0,28,0.00,,,0.00,meteohub,2013-01-18 08:52:00,
2013-01-18 01:57:00,30.9,1.6,30.28,SW,215,3.0,6.0,28,0.00,,,0.00,meteohub,2013-01-18 08:57:00,
2013-01-18 02:02:00,30.9,1.6,30.28,SSW,209,0.0,6.0,28,0.00,,,0.00,meteohub,2013-01-18 09:02:00,
2013-01-18 02:07:00,30.9,0.9,30.27,SSW,210,6.0,6.0,27,0.00,,,0.00,meteohub,2013-01-18 09:07:00,
2013-01-18 02:12:00,31.3,1.2,30.28,SSW,210,1.0,6.0,27,0.00,,,0.00,meteohub,2013-01-18 09:12:00,
2013-01-18 02:17:00,31.3,1.2,30.27,SSW,210,1.0,6.0,27,0.00,,,0.00,meteohub,2013-01-18 09:17:00,
2013-01-18 02:22:00,31.8,0.9,30.27,West,278,8.0,8.0,26,0.00,,,0.00,meteohub,2013-01-18 09:22:00,
2013-01-18 02:27:00,34.0,-0.9,30.26,SW,235,2.0,11.0,22,0.00,,,0.00,meteohub,2013-01-18 09:27:00,
2013-01-18 02:32:00,36.1,0.9,30.27,SW,235,1.0,12.0,22,0.00,,,0.00,meteohub,2013-01-18 09:32:00,
2013-01-18 02:37:00,37.2,0.9,30.27,South,169,1.0,12.0,21,0.00,,,0.00,meteohub,2013-01-18 09:37:00,
2013-01-18 02:42:00,37.6,0.1,30.26,SW,214,0.0,12.0,20,0.00,,,0.00,meteohub,2013-01-18 09:42:00,
2013-01-18 02:47:00,38.3,-0.4,30.26,NW,307,10.0,18.0,19,0.00,,,0.00,meteohub,2013-01-18 09:47:00,
2013-01-18 02:52:00,41.5,-1.3,30.26,West,265,12.0,24.0,16,0.00,,,0.00,meteohub,2013-01-18 09:52:00,
2013-01-18 02:57:00,43.5,-1.1,30.26,WSW,257,17.0,24.0,15,0.00,,,0.00,meteohub,2013-01-18 09:57:00,
2013-01-18 03:02:00,44.6,-0.2,30.25,WNW,285,10.0,25.0,15,0.00,,,0.00,meteohub,2013-01-18 10:02:00,
2013-01-18 03:07:00,45.1,0.1,30.25,West,261,10.0,25.0,15,0.00,,,0.00,meteohub,2013-01-18 10:07:00,
2013-01-18 03:12:00,45.1,0.1,30.25,NW,304,4.0,25.0,15,0.00,,,0.00,meteohub,2013-01-18 10:12:00,
2013-01-18 03:17:00,44.8,-1.5,30.25,NW,312,7.0,19.0,14,0.00,,,0.00,meteohub,2013-01-18 10:17:00,
2013-01-18 03:22:00,44.2,-2.0,30.24,SW,232,1.0,12.0,14,0.00,,,0.00,meteohub,2013-01-18 10:22:00,
2013-01-18 03:27:00,43.9,-0.8,30.25,NNW,329,8.0,10.0,15,0.00,,,0.00,meteohub,2013-01-18 10:27:00,
2013-01-18 03:32:00,43.3,-2.7,30.25,WSW,247,0.0,10.0,14,0.00,,,0.00,meteohub,2013-01-18 10:32:00,
2013-01-18 03:37:00,42.8,-1.7,30.24,SW,215,0.0,9.0,15,0.00,,,0.00,meteohub,2013-01-18 10:37:00,
2013-01-18 03:42:00,42.3,-0.8,30.24,SW,215,4.0,9.0,16,0.00,,,0.00,meteohub,2013-01-18 10:42:00,
2013-01-18 03:47:00,41.2,-1.7,30.24,SW,217,4.0,6.0,16,0.00,,,0.00,meteohub,2013-01-18 10:47:00,
2013-01-18 03:52:00,40.1,-1.3,30.23,WSW,238,0.0,7.0,17,0.00,,,0.00,meteohub,2013-01-18 10:52:00,
2013-01-18 03:57:00,39.7,-1.5,30.24,NNE,30,7.0,9.0,17,0.00,,,0.00,meteohub,2013-01-18 10:57:00,
2013-01-18 04:02:00,40.1,-2.6,30.23,WSW,252,2.0,11.0,16,0.00,,,0.00,meteohub,2013-01-18 11:02:00,
2013-01-18 04:07:00,41.2,-2.9,30.23,North,5,6.0,15.0,15,0.00,,,0.00,meteohub,2013-01-18 11:07:00,
2013-01-18 04:12:00,41.7,-2.6,30.23,WNW,298,4.0,15.0,15,0.00,,,0.00,meteohub,2013-01-18 11:12:00,
2013-01-18 04:17:00,42.4,-2.0,30.22,North,0,1.0,15.0,15,0.00,,,0.00,meteohub,2013-01-18 11:17:00,
2013-01-18 04:22:00,42.8,-1.7,30.22,WNW,300,5.0,12.0,15,0.00,,,0.00,meteohub,2013-01-18 11:22:00,
2013-01-18 04:27:00,43.0,-2.9,30.22,WNW,302,3.0,11.0,14,0.00,,,0.00,meteohub,2013-01-18 11:27:00,
2013-01-18 04:32:00,42.8,-3.1,30.22,WNW,299,5.0,11.0,14,0.00,,,0.00,meteohub,2013-01-18 11:32:00,
2013-01-18 04:37:00,42.4,-3.5,30.22,North,0,3.0,11.0,14,0.00,,,0.00,meteohub,2013-01-18 11:37:00,
2013-01-18 04:42:00,41.5,-1.3,30.22,North,0,2.0,9.0,16,0.00,,,0.00,meteohub,2013-01-18 11:42:00,
2013-01-18 04:47:00,40.3,-2.4,30.21,NW,304,1.0,9.0,16,0.00,,,0.00,meteohub,2013-01-18 11:47:00,
2013-01-18 04:52:00,39.2,-3.3,30.21,West,271,3.0,5.0,16,0.00,,,0.00,meteohub,2013-01-18 11:52:00,
2013-01-18 04:57:00,40.3,-3.6,30.21,West,265,8.0,20.0,15,0.00,,,0.00,meteohub,2013-01-18 11:57:00,
2013-01-18 05:02:00,41.5,-4.2,30.21,WSW,246,2.0,20.0,14,0.00,,,0.00,meteohub,2013-01-18 12:02:00,
2013-01-18 05:07:00,42.3,-3.6,30.20,WNW,284,3.0,20.0,14,0.00,,,0.00,meteohub,2013-01-18 12:07:00,
2013-01-18 05:12:00,42.4,-3.5,30.20,WSW,239,11.0,14.0,14,0.00,,,0.00,meteohub,2013-01-18 12:12:00,
2013-01-18 05:17:00,43.2,-4.4,30.20,West,265,5.0,18.0,13,0.00,,,0.00,meteohub,2013-01-18 12:17:00,
2013-01-18 05:22:00,43.9,-5.4,30.20,WSW,253,11.0,18.0,12,0.00,,,0.00,meteohub,2013-01-18 12:22:00,
2013-01-18 05:27:00,44.2,-5.3,30.21,West,272,4.0,18.0,12,0.00,,,0.00,meteohub,2013-01-18 12:27:00,
2013-01-18 05:32:00,44.8,-4.7,30.20,West,269,11.0,15.0,12,0.00,,,0.00,meteohub,2013-01-18 12:32:00,
2013-01-18 05:37:00,45.0,-4.5,30.19,SW,235,5.0,20.0,12,0.00,,,0.00,meteohub,2013-01-18 12:37:00,
2013-01-18 05:42:00,44.8,-4.7,30.19,WSW,249,3.0,20.0,12,0.00,,,0.00,meteohub,2013-01-18 12:42:00,
2013-01-18 05:47:00,44.6,-4.9,30.19,West,262,4.0,20.0,12,0.00,,,0.00,meteohub,2013-01-18 12:47:00,
2013-01-18 05:52:00,44.4,-5.1,30.20,WNW,290,12.0,15.0,12,0.00,,,0.00,meteohub,2013-01-18 12:52:00,
2013-01-18 05:57:00,44.4,-5.1,30.19,West,265,4.0,15.0,12,0.00,,,0.00,meteohub,2013-01-18 12:57:00,
2013-01-18 06:02:00,44.4,-5.1,30.19,West,267,5.0,16.0,12,0.00,,,0.00,meteohub,2013-01-18 13:02:00,
2013-01-18 06:07:00,44.4,-5.1,30.19,NW,313,2.0,16.0,12,0.00,,,0.00,meteohub,2013-01-18 13:07:00,
2013-01-18 06:12:00,44.1,-3.6,30.18,NNW,347,4.0,12.0,13,0.00,,,0.00,meteohub,2013-01-18 13:12:00,
2013-01-18 06:17:00,43.3,-4.2,30.19,WNW,295,12.0,12.0,13,0.00,,,0.00,meteohub,2013-01-18 13:17:00,
2013-01-18 06:22:00,44.1,-5.3,30.19,West,270,14.0,15.0,12,0.00,,,0.00,meteohub,2013-01-18 13:22:00,
2013-01-18 06:27:00,45.3,-6.2,30.19,West,260,9.0,21.0,11,0.00,,,0.00,meteohub,2013-01-18 13:27:00,
2013-01-18 06:32:00,46.2,-5.4,30.19,West,263,8.0,22.0,11,0.00,,,0.00,meteohub,2013-01-18 13:32:00,
2013-01-18 06:37:00,46.6,-7.1,30.18,West,265,8.0,22.0,10,0.00,,,0.00,meteohub,2013-01-18 13:37:00,
2013-01-18 06:42:00,46.8,-7.1,30.18,WSW,245,7.0,21.0,10,0.00,,,0.00,meteohub,2013-01-18 13:42:00,
2013-01-18 06:47:00,46.9,-6.9,30.17,WSW,252,6.0,19.0,10,0.00,,,0.00,meteohub,2013-01-18 13:47:00,
2013-01-18 06:52:00,46.8,-5.1,30.17,SW,230,9.0,19.0,11,0.00,,,0.00,meteohub,2013-01-18 13:52:00,
2013-01-18 06:57:00,45.7,-5.8,30.17,SW,235,2.0,19.0,11,0.00,,,0.00,meteohub,2013-01-18 13:57:00,
2013-01-18 07:02:00,44.8,-4.7,30.18,SW,227,3.0,14.0,12,0.00,,,0.00,meteohub,2013-01-18 14:02:00,
2013-01-18 07:07:00,44.1,-5.3,30.18,WSW,240,4.0,14.0,12,0.00,,,0.00,meteohub,2013-01-18 14:07:00,
2013-01-18 07:12:00,43.2,-4.4,30.18,WSW,240,2.0,11.0,13,0.00,,,0.00,meteohub,2013-01-18 14:12:00,
2013-01-18 07:17:00,42.1,-3.6,30.18,WSW,240,2.0,9.0,14,0.00,,,0.00,meteohub,2013-01-18 14:17:00,
2013-01-18 07:22:00,40.8,-4.7,30.18,WSW,240,2.0,6.0,14,0.00,,,0.00,meteohub,2013-01-18 14:22:00,
2013-01-18 07:27:00,39.9,-4.0,30.19,West,281,1.0,6.0,15,0.00,,,0.00,meteohub,2013-01-18 14:27:00,
2013-01-18 07:32:00,39.0,-4.7,30.19,WSW,240,3.0,7.0,15,0.00,,,0.00,meteohub,2013-01-18 14:32:00,
2013-01-18 07:42:00,37.8,-3.1,30.19,SSW,209,1.0,6.0,17,0.00,,,0.00,meteohub,2013-01-18 14:42:00,
2013-01-18 07:47:00,36.9,-3.8,30.18,SSW,209,3.0,6.0,17,0.00,,,0.00,meteohub,2013-01-18 14:47:00,
2013-01-18 07:52:00,36.1,-3.3,30.18,SSW,209,3.0,6.0,18,0.00,,,0.00,meteohub,2013-01-18 14:52:00,
2013-01-18 07:57:00,36.0,-3.5,30.18,SSW,209,3.0,3.0,18,0.00,,,0.00,meteohub,2013-01-18 14:57:00,
2013-01-18 08:02:00,36.5,-2.9,30.18,SE,146,4.0,6.0,18,0.00,,,0.00,meteohub,2013-01-18 15:02:00,
2013-01-18 08:07:00,36.5,-2.9,30.19,SE,146,2.0,6.0,18,0.00,,,0.00,meteohub,2013-01-18 15:07:00,
2013-01-18 08:12:00,36.7,-2.9,30.18,SE,146,4.0,6.0,18,0.00,,,0.00,meteohub,2013-01-18 15:12:00,
2013-01-18 08:17:00,37.2,-3.6,30.18,SE,125,2.0,7.0,17,0.00,,,0.00,meteohub,2013-01-18 15:17:00,
2013-01-18 08:22:00,38.5,-2.6,30.18,ESE,123,2.0,7.0,17,0.00,,,0.00,meteohub,2013-01-18 15:22:00,
2013-01-18 08:32:00,39.7,-0.4,30.19,NE,42,0.0,7.0,18,0.00,,,0.00,meteohub,2013-01-18 15:32:00,
2013-01-18 08:42:00,39.9,-1.3,30.19,WSW,252,3.0,8.0,17,0.00,,,0.00,meteohub,2013-01-18 15:42:00,
2013-01-18 08:47:00,40.3,-1.1,30.19,South,183,2.0,8.0,17,0.00,,,0.00,meteohub,2013-01-18 15:47:00,
2013-01-18 08:52:00,40.5,0.3,30.19,SSE,151,6.0,8.0,18,0.00,,,0.00,meteohub,2013-01-18 15:52:00,
2013-01-18 09:02:00,41.2,-0.4,30.19,ESE,106,0.0,11.0,17,0.00,,,0.00,meteohub,2013-01-18 16:02:00,
2013-01-18 09:07:00,41.5,-1.3,30.19,SSE,161,4.0,11.0,16,0.00,,,0.00,meteohub,2013-01-18 16:07:00,
2013-01-18 09:12:00,42.3,-2.2,30.19,South,190,6.0,11.0,15,0.00,,,0.00,meteohub,2013-01-18 16:12:00,
2013-01-18 09:17:00,42.8,-1.7,30.19,SSE,148,4.0,9.0,15,0.00,,,0.00,meteohub,2013-01-18 16:17:00,
2013-01-18 09:22:00,43.5,-1.1,30.19,ESE,121,5.0,9.0,15,0.00,,,0.00,meteohub,2013-01-18 16:22:00,
2013-01-18 09:27:00,44.2,-2.0,30.19,ESE,105,5.0,9.0,14,0.00,,,0.00,meteohub,2013-01-18 16:27:00,
2013-01-18 09:32:00,44.4,-1.8,30.19,ESE,111,2.0,8.0,14,0.00,,,0.00,meteohub,2013-01-18 16:32:00,
2013-01-18 09:37:00,44.8,-1.5,30.19,SSE,149,5.0,8.0,14,0.00,,,0.00,meteohub,2013-01-18 16:37:00,
2013-01-18 09:42:00,45.1,-1.3,30.19,ESE,121,8.0,8.0,14,0.00,,,0.00,meteohub,2013-01-18 16:42:00,
2013-01-18 09:47:00,45.5,-2.6,30.19,ESE,113,6.0,8.0,13,0.00,,,0.00,meteohub,2013-01-18 16:47:00,
2013-01-18 09:52:00,45.7,-0.8,30.19,East,98,6.0,8.0,14,0.00,,,0.00,meteohub,2013-01-18 16:52:00,
2013-01-18 09:57:00,46.0,-0.6,30.20,East,99,0.0,8.0,14,0.00,,,0.00,meteohub,2013-01-18 16:57:00,
2013-01-18 10:02:00,46.2,-0.4,30.19,East,91,5.0,7.0,14,0.00,,,0.00,meteohub,2013-01-18 17:02:00,
2013-01-18 10:07:00,46.4,-0.2,30.19,East,92,6.0,7.0,14,0.00,,,0.00,meteohub,2013-01-18 17:07:00,
2013-01-18 10:12:00,46.8,0.0,30.19,East,90,6.0,6.0,14,0.00,,,0.00,meteohub,2013-01-18 17:12:00,
2013-01-18 10:17:00,47.1,0.3,30.19,East,98,6.0,8.0,14,0.00,,,0.00,meteohub,2013-01-18 17:17:00,
2013-01-18 10:22:00,47.8,0.9,30.19,East,94,5.0,8.0,14,0.00,,,0.00,meteohub,2013-01-18 17:22:00,
2013-01-18 10:32:00,49.1,0.3,30.19,East,98,1.0,7.0,13,0.00,,,0.00,meteohub,2013-01-18 17:32:00,
2013-01-18 10:42:00,49.6,0.7,30.18,East,88,2.0,6.0,13,0.00,,,0.00,meteohub,2013-01-18 17:42:00,
2013-01-18 10:47:00,49.8,-0.8,30.17,ESE,106,5.0,6.0,12,0.00,,,0.00,meteohub,2013-01-18 17:47:00,
2013-01-18 10:52:00,50.2,-0.6,30.17,East,88,3.0,7.0,12,0.00,,,0.00,meteohub,2013-01-18 17:52:00,
2013-01-18 10:57:00,50.7,0.0,30.17,ESE,119,6.0,7.0,12,0.00,,,0.00,meteohub,2013-01-18 17:57:00,
2013-01-18 11:07:00,52.0,0.9,30.16,East,98,7.0,8.0,12,0.00,,,0.00,meteohub,2013-01-18 18:07:00,
2013-01-18 11:12:00,52.2,1.0,30.15,ESE,123,6.0,8.0,12,0.00,,,0.00,meteohub,2013-01-18 18:12:00,
2013-01-18 11:17:00,53.1,0.0,30.15,SSW,192,3.0,8.0,11,0.00,,,0.00,meteohub,2013-01-18 18:17:00,
2013-01-18 11:22:00,54.1,-1.3,30.14,SSW,198,3.0,8.0,10,0.00,,,0.00,meteohub,2013-01-18 18:22:00,
2013-01-18 11:27:00,54.7,-3.1,30.13,WNW,284,11.0,16.0,9,0.00,,,0.00,meteohub,2013-01-18 18:27:00,
2013-01-18 11:32:00,55.6,-2.4,30.13,NW,306,6.0,21.0,9,0.00,,,0.00,meteohub,2013-01-18 18:32:00,
2013-01-18 11:42:00,56.5,-1.7,30.12,SW,217,4.0,21.0,9,0.00,,,0.00,meteohub,2013-01-18 18:42:00,
2013-01-18 11:47:00,56.8,-1.5,30.12,SW,228,4.0,18.0,9,0.00,,,0.00,meteohub,2013-01-18 18:47:00,
2013-01-18 11:52:00,57.2,-1.1,30.11,West,271,8.0,17.0,9,0.00,,,0.00,meteohub,2013-01-18 18:52:00,
2013-01-18 11:57:00,57.6,-0.9,30.11,WNW,294,7.0,16.0,9,0.00,,,0.00,meteohub,2013-01-18 18:57:00,
2013-01-18 12:02:00,57.6,-3.3,30.10,West,274,15.0,16.0,8,0.00,,,0.00,meteohub,2013-01-18 19:02:00,
2013-01-18 12:07:00,57.6,-3.3,30.10,WSW,254,8.0,18.0,8,0.00,,,0.00,meteohub,2013-01-18 19:07:00,
2013-01-18 12:12:00,57.7,-3.3,30.10,WSW,244,9.0,18.0,8,0.00,,,0.00,meteohub,2013-01-18 19:12:00,
2013-01-18 12:17:00,57.7,-3.3,30.09,WSW,255,9.0,18.0,8,0.00,,,0.00,meteohub,2013-01-18 19:17:00,
2013-01-18 12:22:00,57.7,-0.8,30.09,WNW,290,9.0,15.0,9,0.00,,,0.00,meteohub,2013-01-18 19:22:00,
2013-01-18 12:27:00,57.9,-3.1,30.09,SSW,210,6.0,15.0,8,0.00,,,0.00,meteohub,2013-01-18 19:27:00,
2013-01-18 12:37:00,58.6,0.0,30.09,West,262,9.0,15.0,9,0.00,,,0.00,meteohub,2013-01-18 19:37:00,
2013-01-18 12:42:00,58.6,-2.6,30.08,West,264,10.0,16.0,8,0.00,,,0.00,meteohub,2013-01-18 19:42:00,
2013-01-18 12:47:00,57.9,-0.6,30.08,West,265,17.0,24.0,9,0.00,,,0.00,meteohub,2013-01-18 19:47:00,
2013-01-18 12:52:00,57.6,-3.3,30.08,WNW,300,23.0,24.0,8,0.00,,,0.00,meteohub,2013-01-18 19:52:00,
2013-01-18 12:57:00,57.2,-3.6,30.08,WSW,244,6.0,28.0,8,0.00,,,0.00,meteohub,2013-01-18 19:57:00,
2013-01-18 13:02:00,57.0,-3.8,30.07,WNW,296,15.0,33.0,8,0.00,,,0.00,meteohub,2013-01-18 20:02:00,
2013-01-18 13:07:00,56.8,-1.5,30.08,West,276,21.0,33.0,9,0.00,,,0.00,meteohub,2013-01-18 20:07:00,
2013-01-18 13:12:00,56.8,-1.5,30.07,West,265,22.0,31.0,9,0.00,,,0.00,meteohub,2013-01-18 20:12:00,
2013-01-18 13:17:00,56.7,-1.7,30.07,SW,224,7.0,31.0,9,0.00,,,0.00,meteohub,2013-01-18 20:17:00,
2013-01-18 13:22:00,56.8,-1.5,30.07,SW,236,13.0,31.0,9,0.00,,,0.00,meteohub,2013-01-18 20:22:00,
2013-01-18 13:27:00,56.8,-1.5,30.07,WSW,252,14.0,27.0,9,0.00,,,0.00,meteohub,2013-01-18 20:27:00,
2013-01-18 13:32:00,56.8,-1.5,30.07,West,265,20.0,24.0,9,0.00,,,0.00,meteohub,2013-01-18 20:32:00,
2013-01-18 13:37:00,56.8,-1.5,30.07,SW,232,9.0,26.0,9,0.00,,,0.00,meteohub,2013-01-18 20:37:00,
2013-01-18 13:47:00,57.0,-3.8,30.06,West,281,12.0,27.0,8,0.00,,,0.00,meteohub,2013-01-18 20:47:00,
2013-01-18 13:52:00,57.2,-3.6,30.06,West,273,16.0,27.0,8,0.00,,,0.00,meteohub,2013-01-18 20:52:00,
2013-01-18 13:57:00,57.0,-1.3,30.06,WSW,252,11.0,27.0,9,0.00,,,0.00,meteohub,2013-01-18 20:57:00,
2013-01-18 14:02:00,57.0,-3.8,30.06,West,265,14.0,23.0,8,0.00,,,0.00,meteohub,2013-01-18 21:02:00,
2013-01-18 14:07:00,56.7,-1.7,30.06,West,271,20.0,30.0,9,0.00,,,0.00,meteohub,2013-01-18 21:07:00,
2013-01-18 14:12:00,56.5,-1.7,30.06,WSW,254,10.0,30.0,9,0.00,,,0.00,meteohub,2013-01-18 21:12:00,
2013-01-18 14:17:00,56.7,-1.7,30.06,WNW,291,14.0,30.0,9,0.00,,,0.00,meteohub,2013-01-18 21:17:00,
2013-01-18 14:22:00,56.5,-1.7,30.06,West,274,12.0,27.0,9,0.00,,,0.00,meteohub,2013-01-18 21:22:00,
2013-01-18 14:27:00,56.1,-2.0,30.06,WNW,287,16.0,29.0,9,0.00,,,0.00,meteohub,2013-01-18 21:27:00,
2013-01-18 14:32:00,55.9,-2.2,30.06,West,268,6.0,29.0,9,0.00,,,0.00,meteohub,2013-01-18 21:32:00,
2013-01-18 14:37:00,55.6,-2.4,30.06,West,270,6.0,29.0,9,0.00,,,0.00,meteohub,2013-01-18 21:37:00,
2013-01-18 14:42:00,55.4,-2.6,30.06,West,263,24.0,29.0,9,0.00,,,0.00,meteohub,2013-01-18 21:42:00,
2013-01-18 14:47:00,55.0,-2.7,30.06,WSW,250,23.0,33.0,9,0.00,,,0.00,meteohub,2013-01-18 21:47:00,
2013-01-18 14:52:00,54.7,-3.1,30.06,West,259,9.0,33.0,9,0.00,,,0.00,meteohub,2013-01-18 21:52:00,
2013-01-18 14:57:00,54.5,-3.3,30.05,West,264,13.0,33.0,9,0.00,,,0.00,meteohub,2013-01-18 21:57:00,
2013-01-18 15:07:00,54.3,-3.3,30.05,WNW,295,12.0,28.0,9,0.00,,,0.00,meteohub,2013-01-18 22:07:00,
2013-01-18 15:12:00,54.1,-1.3,30.05,West,266,13.0,28.0,10,0.00,,,0.00,meteohub,2013-01-18 22:12:00,
2013-01-18 15:17:00,54.0,-1.5,30.06,WSW,253,16.0,28.0,10,0.00,,,0.00,meteohub,2013-01-18 22:17:00,
2013-01-18 15:22:00,53.8,-1.5,30.05,West,281,14.0,28.0,10,0.00,,,0.00,meteohub,2013-01-18 22:22:00,
2013-01-18 15:27:00,53.4,-1.8,30.05,West,271,12.0,27.0,10,0.00,,,0.00,meteohub,2013-01-18 22:27:00,
2013-01-18 15:32:00,53.2,-2.0,30.05,West,273,20.0,27.0,10,0.00,,,0.00,meteohub,2013-01-18 22:32:00,
2013-01-18 15:37:00,53.1,-2.2,30.05,SSW,213,14.0,32.0,10,0.00,,,0.00,meteohub,2013-01-18 22:37:00,
2013-01-18 15:42:00,52.9,-2.2,30.05,West,259,16.0,32.0,10,0.00,,,0.00,meteohub,2013-01-18 22:42:00,
2013-01-18 15:47:00,52.9,-2.2,30.05,West,274,15.0,29.0,10,0.00,,,0.00,meteohub,2013-01-18 22:47:00,
2013-01-18 15:52:00,52.5,-2.6,30.05,West,267,15.0,28.0,10,0.00,,,0.00,meteohub,2013-01-18 22:52:00,
2013-01-18 16:02:00,52.2,-0.8,30.05,West,262,15.0,27.0,11,0.00,,,0.00,meteohub,2013-01-18 23:02:00,
2013-01-18 16:07:00,52.0,-0.9,30.05,WNW,286,13.0,26.0,11,0.00,,,0.00,meteohub,2013-01-18 23:07:00,
2013-01-18 16:12:00,51.6,-1.3,30.06,WSW,254,10.0,26.0,11,0.00,,,0.00,meteohub,2013-01-18 23:12:00,
2013-01-18 16:17:00,51.6,-1.3,30.06,West,280,9.0,21.0,11,0.00,,,0.00,meteohub,2013-01-18 23:17:00,
2013-01-18 16:22:00,51.3,-1.5,30.05,West,272,19.0,26.0,11,0.00,,,0.00,meteohub,2013-01-18 23:22:00,
2013-01-18 16:27:00,51.1,-1.7,30.06,West,259,11.0,31.0,11,0.00,,,0.00,meteohub,2013-01-18 23:27:00,
2013-01-18 16:32:00,50.7,-1.8,30.06,WSW,256,7.0,31.0,11,0.00,,,0.00,meteohub,2013-01-18 23:32:00,
2013-01-18 16:37:00,50.7,-1.8,30.06,West,277,15.0,31.0,11,0.00,,,0.00,meteohub,2013-01-18 23:37:00,
2013-01-18 16:42:00,50.5,-2.0,30.06,West,263,12.0,28.0,11,0.00,,,0.00,meteohub,2013-01-18 23:42:00,
2013-01-18 16:52:00,50.2,-2.4,30.06,WSW,256,10.0,22.0,11,0.00,,,0.00,meteohub,2013-01-18 23:52:00,
2013-01-18 16:57:00,49.8,-0.8,30.06,West,278,16.0,22.0,12,0.00,,,0.00,meteohub,2013-01-18 23:57:00,
2013-01-18 17:02:00,49.6,-0.9,30.06,West,269,10.0,21.0,12,0.00,,,0.00,meteohub,2013-01-19 00:02:00,
2013-01-18 17:07:00,49.5,-1.1,30.06,West,261,15.0,27.0,12,0.00,,,0.00,meteohub,2013-01-19 00:07:00,
2013-01-18 17:12:00,49.3,-1.3,30.06,West,266,19.0,27.0,12,0.00,,,0.00,meteohub,2013-01-19 00:12:00,
2013-01-18 17:17:00,49.1,0.3,30.07,WSW,246,10.0,26.0,13,0.00,,,0.00,meteohub,2013-01-19 00:17:00,
2013-01-18 17:22:00,48.9,-1.5,30.06,WSW,242,20.0,27.0,12,0.00,,,0.00,meteohub,2013-01-19 00:22:00,
2013-01-18 17:27:00,48.7,-1.7,30.06,SW,231,11.0,27.0,12,0.00,,,0.00,meteohub,2013-01-19 00:27:00,
2013-01-18 17:32:00,48.6,-1.8,30.07,WSW,256,7.0,27.0,12,0.00,,,0.00,meteohub,2013-01-19 00:32:00,
2013-01-18 17:42:00,48.4,-0.2,30.07,WSW,257,19.0,23.0,13,0.00,,,0.00,meteohub,2013-01-19 00:42:00,
2013-01-18 17:47:00,48.4,-0.2,30.07,West,267,14.0,22.0,13,0.00,,,0.00,meteohub,2013-01-19 00:47:00,
2013-01-18 17:52:00,48.2,-0.4,30.07,West,273,10.0,22.0,13,0.00,,,0.00,meteohub,2013-01-19 00:52:00,
2013-01-18 17:57:00,48.0,-0.6,30.07,WSW,254,19.0,22.0,13,0.00,,,0.00,meteohub,2013-01-19 00:57:00,
2013-01-18 18:02:00,48.2,-0.4,30.07,West,272,5.0,24.0,13,0.00,,,0.00,meteohub,2013-01-19 01:02:00,
2013-01-18 18:07:00,48.4,-0.2,30.08,West,273,8.0,24.0,13,0.00,,,0.00,meteohub,2013-01-19 01:07:00,
2013-01-18 18:12:00,48.4,-0.2,30.07,West,278,14.0,25.0,13,0.00,,,0.00,meteohub,2013-01-19 01:12:00,
2013-01-18 18:17:00,48.4,-0.2,30.08,West,267,11.0,25.0,13,0.00,,,0.00,meteohub,2013-01-19 01:17:00,
2013-01-18 18:22:00,48.2,-0.4,30.08,WSW,239,15.0,25.0,13,0.00,,,0.00,meteohub,2013-01-19 01:22:00,
2013-01-18 18:27:00,48.0,-0.6,30.09,SSW,211,7.0,22.0,13,0.00,,,0.00,meteohub,2013-01-19 01:27:00,
2013-01-18 18:37:00,47.7,-0.8,30.08,West,267,9.0,22.0,13,0.00,,,0.00,meteohub,2013-01-19 01:37:00,
2013-01-18 18:42:00,47.7,-0.8,30.08,WSW,257,10.0,22.0,13,0.00,,,0.00,meteohub,2013-01-19 01:42:00,
2013-01-18 18:47:00,47.7,-0.8,30.08,WSW,255,9.0,18.0,13,0.00,,,0.00,meteohub,2013-01-19 01:47:00,
2013-01-18 18:52:00,47.3,-1.1,30.08,SW,236,8.0,18.0,13,0.00,,,0.00,meteohub,2013-01-19 01:52:00,
2013-01-18 18:57:00,47.5,-0.9,30.08,WSW,256,13.0,18.0,13,0.00,,,0.00,meteohub,2013-01-19 01:57:00,
2013-01-18 19:02:00,47.5,-2.6,30.08,SW,234,3.0,23.0,12,0.00,,,0.00,meteohub,2013-01-19 02:02:00,
2013-01-18 19:07:00,47.3,-1.1,30.08,West,270,5.0,23.0,13,0.00,,,0.00,meteohub,2013-01-19 02:07:00,
2013-01-18 19:12:00,46.9,-1.3,30.08,SW,219,6.0,17.0,13,0.00,,,0.00,meteohub,2013-01-19 02:12:00,
2013-01-18 19:17:00,46.6,-3.3,30.07,SW,229,3.0,10.0,12,0.00,,,0.00,meteohub,2013-01-19 02:17:00,
2013-01-18 19:22:00,46.0,-2.0,30.07,SW,232,2.0,10.0,13,0.00,,,0.00,meteohub,2013-01-19 02:22:00,
2013-01-18 19:27:00,45.5,-2.6,30.08,SW,232,1.0,7.0,13,0.00,,,0.00,meteohub,2013-01-19 02:27:00,
2013-01-18 19:32:00,44.8,-1.5,30.06,SW,219,3.0,6.0,14,0.00,,,0.00,meteohub,2013-01-19 02:32:00,
2013-01-18 19:37:00,44.6,-1.7,30.06,WSW,253,1.0,7.0,14,0.00,,,0.00,meteohub,2013-01-19 02:37:00,
2013-01-18 19:47:00,44.2,-3.5,30.06,South,180,2.0,7.0,13,0.00,,,0.00,meteohub,2013-01-19 02:47:00,
2013-01-18 19:52:00,44.2,-2.0,30.05,South,171,4.0,10.0,14,0.00,,,0.00,meteohub,2013-01-19 02:52:00,
2013-01-18 19:57:00,44.2,-3.5,30.06,South,169,0.0,10.0,13,0.00,,,0.00,meteohub,2013-01-19 02:57:00,
2013-01-18 20:02:00,44.2,-3.5,30.06,WNW,285,4.0,9.0,13,0.00,,,0.00,meteohub,2013-01-19 03:02:00,
2013-01-18 20:07:00,44.1,-2.2,30.06,WNW,285,1.0,6.0,14,0.00,,,0.00,meteohub,2013-01-19 03:07:00,
2013-01-18 20:12:00,44.1,-2.2,30.06,SW,225,1.0,6.0,14,0.00,,,0.00,meteohub,2013-01-19 03:12:00,
2013-01-18 20:17:00,44.1,-2.2,30.06,SW,225,0.0,6.0,14,0.00,,,0.00,meteohub,2013-01-19 03:17:00,
2013-01-18 20:27:00,43.3,-1.3,30.05,South,188,2.0,4.0,15,0.00,,,0.00,meteohub,2013-01-19 03:27:00,
2013-01-18 20:32:00,43.3,-2.7,30.05,SW,234,0.0,9.0,14,0.00,,,0.00,meteohub,2013-01-19 03:32:00,
2013-01-18 20:42:00,45.1,-2.7,30.05,SSW,203,3.0,12.0,13,0.00,,,0.00,meteohub,2013-01-19 03:42:00,
2013-01-18 20:47:00,45.3,-2.7,30.04,ESE,109,2.0,12.0,13,0.00,,,0.00,meteohub,2013-01-19 03:47:00,
2013-01-18 20:52:00,45.3,-2.7,30.04,ESE,109,2.0,11.0,13,0.00,,,0.00,meteohub,2013-01-19 03:52:00,
2013-01-18 20:57:00,45.0,-2.9,30.04,East,83,7.0,8.0,13,0.00,,,0.00,meteohub,2013-01-19 03:57:00,
2013-01-18 21:02:00,45.0,-2.9,30.05,WSW,255,7.0,9.0,13,0.00,,,0.00,meteohub,2013-01-19 04:02:00,
2013-01-18 21:07:00,45.1,-2.7,30.04,NNW,348,10.0,10.0,13,0.00,,,0.00,meteohub,2013-01-19 04:07:00,
2013-01-18 21:12:00,45.3,-2.7,30.04,North,351,1.0,13.0,13,0.00,,,0.00,meteohub,2013-01-19 04:12:00,
2013-01-18 21:17:00,45.3,-2.7,30.04,North,9,1.0,13.0,13,0.00,,,0.00,meteohub,2013-01-19 04:17:00,
2013-01-18 21:22:00,45.3,-2.7,30.04,South,191,1.0,13.0,13,0.00,,,0.00,meteohub,2013-01-19 04:22:00,
2013-01-18 21:32:00,46.0,-2.0,30.03,SW,225,10.0,16.0,13,0.00,,,0.00,meteohub,2013-01-19 04:32:00,
2013-01-18 21:37:00,46.8,-3.3,30.03,SSW,208,9.0,25.0,12,0.00,,,0.00,meteohub,2013-01-19 04:37:00,
2013-01-18 21:42:00,47.3,-2.7,30.03,WSW,240,9.0,25.0,12,0.00,,,0.00,meteohub,2013-01-19 04:42:00,
2013-01-18 21:47:00,47.7,-2.6,30.02,WNW,288,13.0,25.0,12,0.00,,,0.00,meteohub,2013-01-19 04:47:00,
2013-01-18 21:52:00,48.0,-2.2,30.01,WSW,241,19.0,33.0,12,0.00,,,0.00,meteohub,2013-01-19 04:52:00,
2013-01-18 21:57:00,48.2,-2.0,30.01,WSW,246,15.0,33.0,12,0.00,,,0.00,meteohub,2013-01-19 04:57:00,
2013-01-18 22:03:00,48.4,-1.8,30.01,West,274,11.0,30.0,12,0.00,,,0.00,meteohub,2013-01-19 05:03:00,
2013-01-18 22:07:00,48.6,-1.8,30.01,West,261,16.0,29.0,12,0.00,,,0.00,meteohub,2013-01-19 05:07:00,
2013-01-18 22:12:00,48.6,-3.6,30.00,WSW,238,15.0,28.0,11,0.00,,,0.00,meteohub,2013-01-19 05:12:00,
2013-01-18 22:17:00,48.9,-3.3,30.00,West,274,14.0,26.0,11,0.00,,,0.00,meteohub,2013-01-19 05:17:00,
2013-01-18 22:22:00,49.1,-3.3,30.00,West,274,21.0,35.0,11,0.00,,,0.00,meteohub,2013-01-19 05:22:00,
2013-01-18 22:27:00,49.1,-3.3,29.99,West,280,25.0,35.0,11,0.00,,,0.00,meteohub,2013-01-19 05:27:00,
2013-01-18 22:37:00,49.1,-3.3,29.99,WSW,248,17.0,33.0,11,0.00,,,0.00,meteohub,2013-01-19 05:37:00,
2013-01-18 22:42:00,49.1,-3.3,29.98,SW,233,17.0,33.0,11,0.00,,,0.00,meteohub,2013-01-19 05:42:00,
2013-01-18 22:47:00,49.5,-2.9,29.99,WSW,246,14.0,31.0,11,0.00,,,0.00,meteohub,2013-01-19 05:47:00,
2013-01-18 22:52:00,49.5,-2.9,29.99,West,271,17.0,29.0,11,0.00,,,0.00,meteohub,2013-01-19 05:52:00,
2013-01-18 22:57:00,49.5,-2.9,29.98,SW,231,14.0,37.0,11,0.00,,,0.00,meteohub,2013-01-19 05:57:00,
2013-01-18 23:02:00,49.5,-2.9,29.98,WNW,300,11.0,37.0,11,0.00,,,0.00,meteohub,2013-01-19 06:02:00,
2013-01-18 23:07:00,49.5,-4.9,29.98,NW,309,11.0,37.0,10,0.00,,,0.00,meteohub,2013-01-19 06:07:00,
2013-01-18 23:17:00,50.2,-4.4,29.98,West,277,13.0,27.0,10,0.00,,,0.00,meteohub,2013-01-19 06:17:00,
2013-01-18 23:22:00,50.2,-4.4,29.97,West,260,7.0,27.0,10,0.00,,,0.00,meteohub,2013-01-19 06:22:00,
2013-01-18 23:27:00,50.2,-4.4,29.96,SSW,213,8.0,22.0,10,0.00,,,0.00,meteohub,2013-01-19 06:27:00,
2013-01-18 23:32:00,50.2,-4.4,29.97,WSW,238,14.0,30.0,10,0.00,,,0.00,meteohub,2013-01-19 06:32:00,
2013-01-18 23:37:00,50.4,-4.2,29.97,WSW,242,19.0,30.0,10,0.00,,,0.00,meteohub,2013-01-19 06:37:00,
2013-01-18 23:42:00,50.5,-4.0,29.96,West,259,5.0,32.0,10,0.00,,,0.00,meteohub,2013-01-19 06:42:00,
2013-01-18 23:47:00,50.7,-4.0,29.96,WSW,250,16.0,32.0,10,0.00,,,0.00,meteohub,2013-01-19 06:47:00,
2013-01-18 23:52:00,50.5,-4.0,29.98,SSW,204,7.0,32.0,10,0.00,,,0.00,meteohub,2013-01-19 06:52:00,
2013-01-18 23:57:00,50.4,-4.2,29.97,SW,232,15.0,33.0,10,0.00,,,0.00,meteohub,2013-01-19 06:57:00,